STARLINK-32637, 62032

Orbit data source: Space-Track

STARLINK-32637, 62032 is a payload satellite owned by SpaceX/Seattle (US) in LEO that was launched on Thu, 21 Nov 2024 UTC via an FALCON 9 launch vehicle from the Air Force Eastern Test Range (AFETR). Payload-class satellites include a variety of spacecraft equipped with specific instruments for various scientific and technological missions. These include communications satellites like Starlink; space stations such as the ISS; scientific satellites like the Hubble; Earth observation satellites from companies like Planet Labs, Umbra, and HawkEye 360; GPS; miniature CubeSats for education and research; and military/defense satellites.

Loading next visibility...
Identifier
62032, 2024-216A
Orbit
LEO
Last TLE update
4 hours ago
Origin
Manufacturer
SpaceX/Seattle
Mission
Operational Commercial Communications
Bus & Motor
STARLINK V2M, Unknown motor
Mass
730 kg wet, ~700 kg dry
Launch date (UTC)
2024-11-21 (7 months ago)
Launch vehicle
FALCON 9
Launch site
Air Force Eastern Test Range (AFETR)
Object type
Payload
Rocket body
Debris
Shape & HBR
Box + 2 Pan, 29 m
Radar Cross Section
36.964 m², Large (>1 m²)

Expand to show TLE details & history

TLE from 4 hours ago
0 STARLINK-32637
1 62032U 24216A   25182.20369827  .00036623  00000-0  87917-3 0  9998
2 62032  42.9974 236.6284 0000676 256.9842 103.0939 15.40720560 35335
Epoch: 2025-07-01T04:53Z
TLE epoch observation values (Epoch: 2025-07-01T04:53:19.53Z)
Latitude
-0.00002°
Longitude
-116.20551°
Altitude
443.86 km
Speed
7.648 km/s
True Right ascension
15h 46m 30s
True Declination
0° 00' 00"
Sunlit
Object was in full shadow at epoch
Visualization orbit readout
Latitude
-42.85721°
Longitude
144.49878°
Altitude
456.698 km
Speed
7.639 km/s
Apparent Right ascension
08h 58m 08s
Apparent Declination
-41° 17' 17"
Sunlit
Object is in daylight
Visualization observer readout
Local Sidereal Time
20:46:40
Azimuth
236.834° WSW
Elevation
-87.428°
Doppler factor
1
Orbital elements
Apogee altitude
446.399 km
Perigee altitude
445.477 km
Semi-major axis
6,824.075 km
Eccentricity
0.00007
Inclination
42.9974°
RAAN
236.6284°
Arg. of periapsis
256.9842°
True anomaly
Unknown
Mean anomaly
103.0939°
Eccentric anomaly
Unknown
Mean motion
3.85015 °/min
Orbital period
93.5 mins
BSTAR
0.00087917
Loading maneuver chart data...
Loading SW <> Apogee altitude chart data...
Loading historical data...
Loading historical data...
Loading historical data...
Loading historical data...
Loading historical data...
Loading historical data...
Loading historical data...

STARLINK-32637 Visibility forecast

Observer location: undefined°, undefined°

Span
Click to sort rows by Start time (UTC) header in descending order
Start Az.
Max El. time (UTC)
Max El. Az.
Max El.
End time (UTC)
End Az.
6 mins2025-07-01 09:53:26.642Z284.456° WNW2025-07-01 09:56:26.642Z4.985° NNE37.063°2025-07-01 09:59:26.642Z74.034° E
5 mins2025-07-01 11:32:26.642Z291.063° WNW2025-07-01 11:34:26.642Z332.232° NNW44.034°2025-07-01 11:37:26.642Z103.075° ESE
5 mins2025-07-02 07:35:26.642Z241.929° WSW2025-07-02 07:37:26.642Z201.227° SSW43.365°2025-07-02 07:40:26.642Z74.574° E
|